Hourly Data Report for May 17, 2020

STE-ANNE-DE-BELLEVUE 1
QUEBEC
Current Station Operator: ECCC - MSC

45°25'38.000" N
73°55'45.000" W
39.00 m
702FHL8
71377
WVQ

Download Data

Hourly Data (May 2020)
Hourly Data Report for May 17, 2020
TIME
LST
Temp Definition
°C
Dew Point Definition
°C
Rel Hum Definition
%
Precip. Amount Definition
mm

Wind Dir Definition
10's deg

Wind Spd Definition
km/h
Visibility Definition
km
Stn Press Definition
kPa
Hmdx Definition


Wind Chill Definition


Weather Definition


00:00 12.3 8.4 77 0.0 26 5   101.91     LegendNANA
01:00 12.2 8.3 77 0.0 24 4   101.92     LegendNANA
02:00 11.5 8.3 81 0.0 2 5   101.92     LegendNANA
03:00 10.1 7.0 81 0.0 36 7   101.95     LegendNANA
04:00 8.9 5.7 80 0.0 1 6   102.01     LegendNANA
05:00 8.2 6.3 87 0.0 34 4   102.07     LegendNANA
06:00 10.1 5.7 74 0.0 1 7   102.13     LegendNANA
07:00 12.6 3.9 56 0.0 5 10   102.20     LegendNANA
08:00 14.0 3.4 49 0.0 6 10   102.21     LegendNANA
09:00 15.3 2.8 43 0.0 5 12   102.20     LegendNANA
10:00 15.6 2.3 41 0.0 5 8   102.14     LegendNANA
11:00 16.6 3.6 42 0.0 13 8   102.10     LegendNANA
12:00 17.0 1.7 36 0.0 15 12   102.03     LegendNANA
13:00 17.7 1.7 34 0.0 18 12   101.97     LegendNANA
14:00 18.4 1.9 33 0.0 16 12   101.91     LegendNANA
15:00 18.8 3.0 35 0.0 17 14   101.87     LegendNANA
16:00 19.1 3.2 35 0.0 19 9   101.86     LegendNANA
17:00 18.8 2.4 33 0.0 20 8   101.82     LegendNANA
18:00 18.5 2.6 35 0.0 17 6   101.79     LegendNANA
19:00 17.4 3.2 39 0.0 20 4   101.77     LegendNANA
20:00 14.4 5.6 56 0.0 0 1   101.76     LegendNANA
21:00 13.6 4.9 55 0.0 35 1   101.80     LegendNANA
22:00 13.3 5.6 60 0.0   0   101.80     LegendNANA
23:00 12.8 6.9 67 0.0 1 9   101.83     LegendNANA

Notes on Data Quality.

Legend

  • E = Estimated
  • M = Missing
  • NA = Not Available*
  • [empty] = Indicates an unobserved value
Date modified: